Location: Cazavet
(43.0017°N, 1.0431°E)
Time: 22:25:44
(UTC+00:00)

IGS 5A - Pass Details

Date: 18 January 2026
Orbit: 551 x 554 km, 97.4° (Epoch: 8 January)

Event Time Altitude Azimuth Distance (km) Brightness Sun altitude
Rises 05:48:28 0° 11° (NNE) 2,737 6.9 -17.0°
Reaches altitude 10° 05:50:37 10° 12° (NNE) 1,838 6.0 -16.6°
Maximum altitude 05:54:35 88° 288° (WNW) 558 3.2 -15.9°
Drops below altitude 10° 05:58:33 10° 194° (SSW) 1,823 6.0 -15.2°
Sets 06:00:39 0° 194° (SSW) 2,713 6.9 -14.8°
